Regional Weather Roundup
Issued by NWS

Home | Current Version | Previous Version | Graphics & Text | Print | Product List | Glossary On
Versions: 1 2 3 4 5 6 7 8 9 10 11 12 13 14 15 16 17 18 19 20 21 22 23 24 25 26 27 28 29 30 31 32 33 34 35 36 37 38 39 40 41 42 43 44 45 46 47 48 49 50
000
ASUS43 KMKX 081110
RWRWI

WISCONSIN REGIONAL WEATHER ROUNDUP
NATIONAL WEATHER SERVICE MILWAUKEE/SULLIVAN WI
500 AM CST MON FEB 08 2016

NOTE: "FAIR" INDICATES FEW OR NO CLOUDS BELOW 12,000 FEET WITH NO
SIGNIFICANT WEATHER AND/OR OBSTRUCTIONS TO VISIBILITY.

WIZ001-002-006>008-014>016-023>028-081200-
NORTHWEST WISCONSIN

CITY           SKY/WX    TMP DP  RH WIND       PRES   REMARKS
SUPERIOR ARPT  FLURRIES  14   7  75 N13       29.81R WCI   0
ASHLAND        LGT SNOW  21  18  88 N15       29.72R FOG     WCI   8
HAYWARD        FLURRIES  15  10  80 NW8       29.71R WCI   4
SIREN          LGT SNOW  12   7  79 NW14      29.79R WCI  -3
CUMBERLAND     LGT SNOW  12   9  85 NW21      29.71R WCI  -6
RICE LAKE      LGT SNOW  15  11  83 NW10G17   29.74R WCI   2
CHETEK         LGT SNOW  15  11  85 MISG      29.72R
LADYSMITH      LGT SNOW  19  15  84 NW17G23   29.66S WCI   4
EAU CLAIRE     LGT SNOW  17  10  74 NW13G21   29.71R WCI   4
MENOMONIE      LGT SNOW  17  11  77 NW15      29.73R WCI   2
NEW RICHMOND   LGT SNOW  13   8  79 NW17G26   29.78R WCI  -4
OSCEOLA        FLURRIES  14   8  76 NW16G26   29.83R WCI  -2
$$

WIZ003>005-009-010-017-018-081200-
NORTH CENTRAL WISCONSIN

CITY           SKY/WX    TMP DP  RH WIND       PRES   REMARKS
MANITOWISH WTR LGT SNOW  22  20  92 N13       29.58R WCI  10
ARBOR VITAE    LGT SNOW  25  22  87 N17G23    29.56R WCI  12
WOODRUFF       LGT SNOW  25  22  87 N17G23    29.56R WCI  12
RHINELANDER    LGT SNOW  24  21  88 W5        29.55R FOG     WCI  18
EAGLE RIVER    FLURRIES  26  25  96 NW5       29.53S WCI  21
LAND O LAKES   CLOUDY    25  23  91 N12G18    29.56R WCI  15
PHILLIPS       LGT SNOW  22  19  88 N7        29.59R WCI  14
TOMAHAWK       CLOUDY    23  20  89 W8        29.57R WCI  14
MEDFORD        LGT SNOW  19  17  93 W9        29.58R WCI   8
MERRILL        CLOUDY    24  20  85 NW9       29.57S WCI  14
$$

WIZ029-030-035-036-043>047-081200-
CENTRAL WISCONSIN

CITY           SKY/WX    TMP DP  RH WIND       PRES   REMARKS
WAUSAU         CLOUDY    24  19  81 NW12      29.57R WCI  13
MOSINEE        NOT AVBL
MARSHFIELD     CLOUDY    19  13  77 NW13      29.59S WCI   6
STEVENS POINT  CLOUDY    22  18  83 W8        29.59S WCI  13
WAUPACA        CLOUDY    29  23  76 W8        29.58S WCI  21
WAUTOMA        CLOUDY    26  21  81 NW9       29.60S WCI  17
WISC RAPIDS    FLURRIES  22  15  75 NW13G25   29.62S WCI  10
CAMP DOUGLAS   FLURRIES  19  19 100 W12       29.64R WCI   7
$$

WIZ011>013-019>022-031-037>040-048>050-081200-
NORTHEAST WISCONSIN

CITY           SKY/WX    TMP DP  RH WIND       PRES   REMARKS
ANTIGO         CLOUDY    25  22  91 NW5       29.55R WCI  19
SHAWANO        CLOUDY    33  27  79 W5        29.56S WCI  29
OCONTO         CLOUDY    32  31  96 CALM      29.55S
STURGEON BAY   CLOUDY    34  27  75 CALM      29.57S
GREEN BAY      CLOUDY    33  28  81 W7        29.56R WCI  27
MANITOWOC      LGT RAIN  34  29  82 W5        29.56S WCI  30
APPLETON       NOT AVBL
CLINTONVILLE   CLOUDY    32  25  74 W9        29.56S WCI  24
OSHKOSH        CLOUDY    30  23  75 NW10      29.57R WCI  21
$$

WIZ032>034-041-042-053>061-081200-
SOUTHWEST WISCONSIN

CITY           SKY/WX    TMP DP  RH WIND       PRES   REMARKS
LA CROSSE      LGT SNOW  18  13  80 NW15      29.71S WCI   4
SPARTA         LGT SNOW  19  15  84 W8        29.69R WCI   9
VIROQUA        CLOUDY    17  13  87 NW12      29.65R WCI   4
BOSCOBEL       LGT SNOW  21  16  81 W5        29.70R WCI  15
PRAIRIE DU CHI MIX PCPN  20  11  69 W13G20    29.71S WCI   7
PLATTEVILLE    CLOUDY    21  19  93 W12       29.65F WCI   9
$$

WIZ056-057-062-063-064-067-068-081200-
SOUTH CENTRAL WISCONSIN

CITY           SKY/WX    TMP DP  RH WIND       PRES   REMARKS
REEDSBURG      LGT SNOW  22  19  88 NW13      29.63R WCI  10
BARABOO/DELLS  LGT SNOW  23  18  81 NW7       29.62R WCI  15
LONE ROCK      LGT SNOW  23  18  81 NW12      29.66R WCI  12
MINERAL POINT  LGT SNOW  23  21  93 W10       29.63R WCI  12
MADISON        CLOUDY    28  22  78 MISG      29.60R
MIDDLETON      CLOUDY    27  25  90 NW13      29.61R WCI  17
WATERTOWN      MIX PCPN  30  30 100 NW8       29.58S WCI  22
MONROE         CLOUDY    27  19  74 W16       29.61R WCI  14
JANESVILLE     CLOUDY    30  23  74 W12       29.61R WCI  21
$$

WIZ051-052-058>065-066-070>072-081200-
SOUTHEAST WISCONSIN

CITY           SKY/WX    TMP DP  RH WIND       PRES   REMARKS
MILWAUKEE      LGT SNOW  32  28  85 SW8       29.58S FOG     WCI  25
WAUKESHA       LGT SNOW  30  30 100 SW3       29.58S
MILWAUKEE/TIMM LGT SNOW  32  28  86 SW5       29.58S WCI  27
RACINE         CLOUDY    32  28  85 SW8       29.60S WCI  25
BURLINGTON     CLOUDY    31  29  95 SW7       29.58S WCI  24
KENOSHA        CLOUDY    32  29  88 SW7       29.59S WCI  26
FOND DU LAC    CLOUDY    31  26  82 W7        29.57S WCI  24
SHEBOYGAN      CLOUDY    32  28  85 W6        29.56S WCI  26
WEST BEND      FLURRIES  32  28  86 NW8       29.57R WCI  25
JUNEAU         CLOUDY    29  24  80 NW7       29.59R WCI  22
$$

LSZ147-162-081200-
LAKE SUPERIOR

STATION/POSITION TIME  TEMP    WIND        PRES    WAVE
                       AIR SEA DIR/SP/G            HT/PER
                 (UTC) (F)     (DEG/KT/KT) (MB)    (FT/S)
DEVILS ISLAND    1100   18     360/ 19/ 21 1008.1R
PORT WING        1040   21     320/ 17/ 19 1007.8R
SAXON HARBOR     1000   26                 1004.7R
$$

LMZ867-665-643>646-081200-
LAKE MICHIGAN

STATION/POSITION TIME  TEMP    WIND        PRES    WAVE
                       AIR SEA DIR/SP/G            HT/PER
                 (UTC) (F)     (DEG/KT/KT) (MB)    (FT/S)
CHAMBERS ISLAND  1000   33     200/  3/  5 1001.4R
NORTHPORT PIER   1000   34      CALM  /  4 1001.0R
KEWAUNEE LAKESHO 1000   33     280/  2/  6 1000.2S
SHEBOYGAN LAKESH 1100   33     250/  5/  7 1001.8F
PORT WASHINGTON  1000   33     260/  5/  8 1002.7S
MILWAUKEE LAKESH 1010   33     240/ 10/ 11   N/A
KENOSHA   LAKESH 1100   33     240/  8/ 11 1002.4F
$$

TC  - TEMPERATURE IN CELSIUS
VSB - VISIBILITY IN STATUTE MILES
WCI - WIND CHILL INDEX
HX  - HEAT INDEX




USA.gov is the U.S. government's official web portal to all federal, state and local government web resources and services.